Location: Devore Heights
(34.2372°N, 117.4156°W)
Time: 01:46:52
(UTC+00:00)

A-11 Canister half - Pass Details

Date: 16 September 2024
Orbit: 1515 x 1684 km, 47.2° (Epoch: 06 October)

Event Time Altitude Azimuth Distance (km) Brightness Sun altitude
Rises 02:13:10 0° 242° (WSW) 4,759 12.6 -4.5°
Reaches altitude 10° 02:16:18 10° 244° (WSW) 3,754 12.1 -5.2°
Maximum altitude 02:25:44 70° 328° (NNW) 1,612 9.3 -7.1°
Drops below altitude 10° 02:34:59 10° 52° (NE) 3,678 10.6 -9.0°
Sets 02:38:03 0° 55° (NE) 4,659 11.1 -9.6°
